• Join FlightAware (Why Join?)
  • Login
  • US Flag 
12:04AM EST


 

Airport Tracker/Info


-or-


 

Live Flight TrackerFlight Track Log ✈ N207DB ✈ 02-Jul-2013 ✈ KGBG - KDSM

Flight Track Log - Related Links

Times and Time Zones

All times are in EDT time to prevent confusion due to time zone crossing. See the N207DB flight status page for this flight to view local times or setup timezone preferences in your user account.

Time Position Orientation Groundspeed Altitude Reporting Facility
EDT Latitude Longitude Course Direction KTS MPH feet Rate Location/Type
08:41AM 40.9840 -90.6280 285° West 182 209  Level FlightAware
08:41AM 40.9900 -90.6620 283° West 188 216 4,353 Level FlightAware
08:42AM 40.9970 -90.6950 286° West 189 217 5,328 Level FlightAware
08:42AM 41.0040 -90.7260 287° West 190 219 6,938 Level FlightAware
08:43AM 41.0100 -90.7550 285° West 188 216 9,794 Level FlightAware
08:44AM 41.0180 -90.7990 284° West 189 217 11,100 8,612 Climbing FlightAware
08:44AM 41.0280 -90.8520 284° West 195 224 12,200 1,446 Climbing FlightAware
08:45AM 41.0350 -90.8940 282° West 198 228 13,100 1,186 Climbing FlightAware
08:46AM 41.0470 -90.9530 285° West 217 250 13,900 558 Climbing FlightAware
08:46AM 41.0570 -91.0060 284° West 246 283 13,900  Level FlightAware
08:47AM 41.0670 -91.0660 282° West 257 296 13,900  Level FlightAware
08:48AM 41.0850 -91.1500 286° West 262 302 13,900  Level FlightAware
08:49AM 41.0960 -91.2080 284° West 263 303 13,900  Level FlightAware
08:49AM 41.1130 -91.2990 284° West 265 305 13,900  Level FlightAware
08:50AM 41.1240 -91.3560 284° West 263 303 13,900  Level FlightAware
08:51AM 41.1390 -91.4310 285° West 264 304 13,900 -72 Level FlightAware
08:51AM 41.1490 -91.4860 284° West 264 304 13,800 -80 Descending FlightAware
08:52AM 41.1590 -91.5410 284° West 265 305 13,800  Level FlightAware
08:53AM 41.1740 -91.6220 284° West 265 305 13,800  Level FlightAware
08:54AM 41.1890 -91.7020 284° West 265 305 13,800  Level FlightAware
08:54AM 41.2000 -91.7580 285° West 265 305 13,800 52 Level FlightAware
08:56AM 41.2210 -91.8740 284° West 267 307 13,900  Climbing FlightAware
08:57AM 41.2370 -91.9600 284° West 264 304 13,800 -65 Descending FlightAware
08:57AM 41.2480 -92.0260 283° West 264 304 13,800  Level FlightAware
08:58AM 41.2440 -91.9980 101° East 264 304 13,800  Level FlightAware
08:59AM 41.2550 -92.0610 283° West 264 304 13,800  Level FlightAware
08:59AM 41.2370 -91.9600 103° East 13,900  Climbing FlightAware
09:00AM 41.2890 -92.2480 284° West 261 300 13,800 -70 Descending FlightAware
09:00AM 41.3010 -92.3130 284° West 263 303 13,800  Level FlightAware
09:01AM 41.3140 -92.3850 284° West 262 302 13,800  Level FlightAware
09:02AM 41.3230 -92.4370 283° West 262 302 13,800  Level FlightAware
09:02AM 41.3350 -92.5020 284° West 264 304 13,800  Level FlightAware
09:03AM 41.3510 -92.5940 283° West 263 303 13,800  Level FlightAware
09:04AM 41.3630 -92.6600 284° West 263 303 13,800 -785 Level FlightAware
09:05AM 41.3844 -92.7853 284° West 273 314 12,100 -1,385 Descending Minneapolis Center
09:07AM 41.4050 -92.9003 283° West 271 312 10,500 -1,565 Descending Minneapolis Center
09:07AM 41.4219 -92.9503 294° West 267 307 9,700 -1,548 Descending Minneapolis Center
09:08AM 41.4261 -93.0089 275° West 264 304 8,900 -1,613 Descending Minneapolis Center
09:09AM 41.4422 -93.1117 282° West 264 304 7,200 -1,561 Descending Minneapolis Center
09:10AM 41.4583 -93.2056 283° West 261 300 5,700 -1,306 Descending Minneapolis Center
09:11AM 41.4639 -93.2986 275° West 253 291 4,500 -1,220 Descending Minneapolis Center
09:12AM 41.4706 -93.3969 275° West 248 285 3,200 -878 Descending Minneapolis Center
09:13AM 41.4761 -93.4803 275° West 229 264 2,700 -339 Descending Minneapolis Center
09:14AM 41.4814 -93.5533 276° West 203 234 2,500 -414 Descending Minneapolis Center
09:15AM 41.5108 -93.6056 307° West 137 158 1,700 -519 Descending Minneapolis Center
09:17AM 41.5369 -93.6597 303° West 82 94 900 -294 Descending Minneapolis Center
09:18AM 41.5403 -93.6669 302° West 41 47 900  Level Minneapolis Center